Year,Month,Day,Hour,Minute,Value (Times are PST for temperature in C)
2009,07,19,00,00,17.00
2009,07,19,00,01,17.00
2009,07,19,00,02,16.90
2009,07,19,00,03,16.90
2009,07,19,00,04,16.80
2009,07,19,00,05,16.80
2009,07,19,00,06,16.80
2009,07,19,00,07,16.70
2009,07,19,00,08,16.70
2009,07,19,00,09,16.70
2009,07,19,00,10,16.70
2009,07,19,00,11,16.70
2009,07,19,00,12,16.60
2009,07,19,00,13,16.70
2009,07,19,00,14,16.70
2009,07,19,00,15,16.70
2009,07,19,00,16,16.70
2009,07,19,00,17,16.70
2009,07,19,00,18,16.70
2009,07,19,00,19,16.70
2009,07,19,00,20,16.80
2009,07,19,00,21,16.80
2009,07,19,00,22,16.80
2009,07,19,00,23,16.80
2009,07,19,00,24,16.80
2009,07,19,00,25,16.80
2009,07,19,00,26,16.80
2009,07,19,00,27,16.70
2009,07,19,00,28,16.70
2009,07,19,00,29,16.70
2009,07,19,00,30,16.70
2009,07,19,00,31,16.70
2009,07,19,00,32,16.70
2009,07,19,00,33,16.70
2009,07,19,00,34,16.70
2009,07,19,00,35,16.60
2009,07,19,00,36,16.60
2009,07,19,00,37,16.60
2009,07,19,00,38,16.60
2009,07,19,00,39,16.50
2009,07,19,00,40,16.50
2009,07,19,00,41,16.50
2009,07,19,00,42,16.40
2009,07,19,00,43,16.40
2009,07,19,00,44,16.40
2009,07,19,00,45,16.40
2009,07,19,00,46,16.40
2009,07,19,00,47,16.40
2009,07,19,00,48,16.40
2009,07,19,00,49,16.40
2009,07,19,00,50,16.40
2009,07,19,00,51,16.40
2009,07,19,00,52,16.40
2009,07,19,00,53,16.40
2009,07,19,00,54,16.40
2009,07,19,00,55,16.40
2009,07,19,00,56,16.40
2009,07,19,00,57,16.40
2009,07,19,00,58,16.40
2009,07,19,00,59,16.40
2009,07,19,01,00,16.30
2009,07,19,01,01,16.30
2009,07,19,01,02,16.30
2009,07,19,01,03,16.30
2009,07,19,01,04,16.30
2009,07,19,01,05,16.30
2009,07,19,01,06,16.30
2009,07,19,01,07,16.20
2009,07,19,01,08,16.20
2009,07,19,01,09,16.20
2009,07,19,01,10,16.20
2009,07,19,01,11,16.20
2009,07,19,01,12,16.10
2009,07,19,01,13,16.10
2009,07,19,01,14,16.10
2009,07,19,01,15,16.10
2009,07,19,01,16,16.00
2009,07,19,01,17,16.00
2009,07,19,01,18,16.00
2009,07,19,01,19,16.00
2009,07,19,01,20,16.00
2009,07,19,01,21,15.90
2009,07,19,01,22,15.90
2009,07,19,01,23,15.90
2009,07,19,01,24,15.90
2009,07,19,01,25,15.90
2009,07,19,01,26,15.80
2009,07,19,01,27,15.80
2009,07,19,01,28,15.80
2009,07,19,01,29,15.80
2009,07,19,01,30,15.80
2009,07,19,01,31,15.70
2009,07,19,01,32,15.70
2009,07,19,01,33,15.70
2009,07,19,01,34,15.60
2009,07,19,01,35,15.60
2009,07,19,01,36,15.50
2009,07,19,01,37,15.40
2009,07,19,01,38,15.40
2009,07,19,01,39,15.30
2009,07,19,01,40,15.30
2009,07,19,01,41,15.20
2009,07,19,01,42,15.10
2009,07,19,01,43,15.00
2009,07,19,01,44,15.00
2009,07,19,01,45,15.00
2009,07,19,01,46,15.00
2009,07,19,01,47,14.90
2009,07,19,01,48,14.80
2009,07,19,01,49,14.80
2009,07,19,01,50,14.70
2009,07,19,01,51,14.70
2009,07,19,01,52,14.60
2009,07,19,01,53,14.60
2009,07,19,01,54,14.50
2009,07,19,01,55,14.50
2009,07,19,01,56,14.40
2009,07,19,01,57,14.40
2009,07,19,01,58,14.30
2009,07,19,01,59,14.30
2009,07,19,02,00,14.20
2009,07,19,02,01,14.20
2009,07,19,02,02,14.20
2009,07,19,02,03,14.10
2009,07,19,02,04,14.10
2009,07,19,02,05,14.00
2009,07,19,02,06,14.00
2009,07,19,02,07,13.90
2009,07,19,02,08,13.90
2009,07,19,02,09,13.90
2009,07,19,02,10,13.80
2009,07,19,02,11,13.80
2009,07,19,02,12,13.80
2009,07,19,02,13,13.70
2009,07,19,02,14,13.70
2009,07,19,02,15,13.70
2009,07,19,02,16,13.60
2009,07,19,02,17,13.60
2009,07,19,02,18,13.60
2009,07,19,02,19,13.50
2009,07,19,02,20,13.50
2009,07,19,02,21,13.50
2009,07,19,02,22,13.40
2009,07,19,02,23,13.40
2009,07,19,02,24,13.40
2009,07,19,02,25,13.30
2009,07,19,02,26,13.30
2009,07,19,02,27,13.30
2009,07,19,02,28,13.30
2009,07,19,02,29,13.20
2009,07,19,02,30,13.20
2009,07,19,02,31,13.20
2009,07,19,02,32,13.20
2009,07,19,02,33,13.20
2009,07,19,02,34,13.10
2009,07,19,02,35,13.10
2009,07,19,02,36,13.10
2009,07,19,02,37,13.10
2009,07,19,02,38,13.10
2009,07,19,02,39,13.00
2009,07,19,02,40,13.00
2009,07,19,02,41,13.00
2009,07,19,02,42,13.00
2009,07,19,02,43,13.00
2009,07,19,02,44,13.00
2009,07,19,02,45,13.00
2009,07,19,02,46,13.00
2009,07,19,02,47,13.00
2009,07,19,02,48,13.00
2009,07,19,02,49,13.00
2009,07,19,02,50,13.00
2009,07,19,02,51,13.00
2009,07,19,02,52,13.00
2009,07,19,02,53,13.00
2009,07,19,02,54,12.90
2009,07,19,02,55,12.90
2009,07,19,02,56,12.90
2009,07,19,02,57,12.90
2009,07,19,02,58,12.90
2009,07,19,02,59,12.90
2009,07,19,03,00,12.90
2009,07,19,03,01,12.90
2009,07,19,03,02,12.90
2009,07,19,03,03,12.90
2009,07,19,03,04,12.90
2009,07,19,03,05,12.80
2009,07,19,03,06,12.80
2009,07,19,03,07,12.80
2009,07,19,03,08,12.80
2009,07,19,03,09,12.70
2009,07,19,03,10,12.70
2009,07,19,03,11,12.70
2009,07,19,03,12,12.60
2009,07,19,03,13,12.60
2009,07,19,03,14,12.50
2009,07,19,03,15,12.40
2009,07,19,03,16,12.40
2009,07,19,03,17,12.40
2009,07,19,03,18,12.30
2009,07,19,03,19,12.30
2009,07,19,03,20,12.20
2009,07,19,03,21,12.20
2009,07,19,03,22,12.10
2009,07,19,03,23,12.10
2009,07,19,03,24,12.00
2009,07,19,03,25,12.00
2009,07,19,03,26,11.90
2009,07,19,03,27,11.90
2009,07,19,03,28,11.90
2009,07,19,03,29,11.80
2009,07,19,03,30,11.80
2009,07,19,03,31,11.80
2009,07,19,03,32,11.80
2009,07,19,03,33,11.70
2009,07,19,03,34,11.80
2009,07,19,03,35,11.70
2009,07,19,03,36,11.80
2009,07,19,03,37,11.80
2009,07,19,03,38,11.80
2009,07,19,03,39,11.80
2009,07,19,03,40,11.80
2009,07,19,03,41,11.70
2009,07,19,03,42,11.70
2009,07,19,03,43,11.70
2009,07,19,03,44,11.70
2009,07,19,03,45,11.70
2009,07,19,03,46,11.70
2009,07,19,03,47,11.70
2009,07,19,03,48,11.70
2009,07,19,03,49,11.70
2009,07,19,03,50,11.70
2009,07,19,03,51,11.70
2009,07,19,03,52,11.70
2009,07,19,03,53,11.70
2009,07,19,03,54,11.60
2009,07,19,03,55,11.60
2009,07,19,03,56,11.60
2009,07,19,03,57,11.60
2009,07,19,03,58,11.60
2009,07,19,03,59,11.50
2009,07,19,04,00,11.50
2009,07,19,04,01,11.50
2009,07,19,04,02,11.50
2009,07,19,04,03,11.50
2009,07,19,04,04,11.50
2009,07,19,04,05,11.50
2009,07,19,04,06,11.50
2009,07,19,04,07,11.50
2009,07,19,04,08,11.50
2009,07,19,04,09,11.40
2009,07,19,04,10,11.40
2009,07,19,04,11,11.40
2009,07,19,04,12,11.40
2009,07,19,04,13,11.40
2009,07,19,04,14,11.40
2009,07,19,04,15,11.40
2009,07,19,04,16,11.40
2009,07,19,04,17,11.30
2009,07,19,04,18,11.30
2009,07,19,04,19,11.30
2009,07,19,04,20,11.30
2009,07,19,04,21,11.30
2009,07,19,04,22,11.30
2009,07,19,04,23,11.30
2009,07,19,04,24,11.30
2009,07,19,04,25,11.20
2009,07,19,04,26,11.20
2009,07,19,04,27,11.20
2009,07,19,04,28,11.20
2009,07,19,04,29,11.20
2009,07,19,04,30,11.20
2009,07,19,04,31,11.20
2009,07,19,04,32,11.20
2009,07,19,04,33,11.20
2009,07,19,04,34,11.20
2009,07,19,04,35,11.10
2009,07,19,04,36,11.10
2009,07,19,04,37,11.10
2009,07,19,04,38,11.10
2009,07,19,04,39,11.00
2009,07,19,04,40,11.00
2009,07,19,04,41,11.00
2009,07,19,04,42,10.90
2009,07,19,04,43,10.90
2009,07,19,04,44,10.90
2009,07,19,04,45,10.90
2009,07,19,04,46,10.80
2009,07,19,04,47,10.80
2009,07,19,04,48,10.80
2009,07,19,04,49,10.80
2009,07,19,04,50,10.80
2009,07,19,04,51,10.80
2009,07,19,04,52,10.80
2009,07,19,04,53,10.80
2009,07,19,04,54,10.80
2009,07,19,04,55,10.70
2009,07,19,04,56,10.70
2009,07,19,04,57,10.70
2009,07,19,04,58,10.70
2009,07,19,04,59,10.70
2009,07,19,05,00,10.70
2009,07,19,05,01,10.70
2009,07,19,05,02,10.70
2009,07,19,05,03,10.60
2009,07,19,05,04,10.60
2009,07,19,05,05,10.60
2009,07,19,05,06,10.60
2009,07,19,05,07,10.60
2009,07,19,05,08,10.60
2009,07,19,05,09,10.50
2009,07,19,05,10,10.50
2009,07,19,05,11,10.50
2009,07,19,05,12,10.50
2009,07,19,05,13,10.40
2009,07,19,05,14,10.40
2009,07,19,05,15,10.40
2009,07,19,05,16,10.40
2009,07,19,05,17,10.40
2009,07,19,05,18,10.40
2009,07,19,05,19,10.40
2009,07,19,05,20,10.40
2009,07,19,05,21,10.40
2009,07,19,05,22,10.40
2009,07,19,05,23,10.40
2009,07,19,05,24,10.40
2009,07,19,05,25,10.40
2009,07,19,05,26,10.40
2009,07,19,05,27,10.30
2009,07,19,05,28,10.30
2009,07,19,05,29,10.30
2009,07,19,05,30,10.30
2009,07,19,05,31,10.30
2009,07,19,05,32,10.30
2009,07,19,05,33,10.30
2009,07,19,05,34,10.30
2009,07,19,05,35,10.30
2009,07,19,05,36,10.30
2009,07,19,05,37,10.30
2009,07,19,05,38,10.30
2009,07,19,05,39,10.30
2009,07,19,05,40,10.30
2009,07,19,05,41,10.30
2009,07,19,05,42,10.30
2009,07,19,05,43,10.30
2009,07,19,05,44,10.30
2009,07,19,05,45,10.30
2009,07,19,05,46,10.30
2009,07,19,05,47,10.30
2009,07,19,05,48,10.30
2009,07,19,05,49,10.30
2009,07,19,05,50,10.30
2009,07,19,05,51,10.30
2009,07,19,05,52,10.40
2009,07,19,05,53,10.40
2009,07,19,05,54,10.40
2009,07,19,05,55,10.40
2009,07,19,05,56,10.40
2009,07,19,05,57,10.40
2009,07,19,05,58,10.40
2009,07,19,05,59,10.40
2009,07,19,06,00,10.40
2009,07,19,06,01,10.50
2009,07,19,06,02,10.50
2009,07,19,06,03,10.50
2009,07,19,06,04,10.60
2009,07,19,06,05,10.60
2009,07,19,06,06,10.60
2009,07,19,06,07,10.60
2009,07,19,06,08,10.60
2009,07,19,06,09,10.60
2009,07,19,06,10,10.70
2009,07,19,06,11,10.70
2009,07,19,06,12,10.70
2009,07,19,06,13,10.80
2009,07,19,06,14,10.80
2009,07,19,06,15,10.80
2009,07,19,06,16,10.80
2009,07,19,06,17,10.80
2009,07,19,06,18,10.80
2009,07,19,06,19,10.80
2009,07,19,06,20,10.80
2009,07,19,06,21,10.80
2009,07,19,06,22,10.90
2009,07,19,06,23,10.90
2009,07,19,06,24,10.90
2009,07,19,06,25,11.00
2009,07,19,06,26,11.00
2009,07,19,06,27,11.10
2009,07,19,06,28,11.10
2009,07,19,06,29,11.20
2009,07,19,06,30,11.20
2009,07,19,06,31,11.30
2009,07,19,06,32,11.40
2009,07,19,06,33,11.50
2009,07,19,06,34,11.60
2009,07,19,06,35,11.80
2009,07,19,06,36,11.90
2009,07,19,06,37,12.00
2009,07,19,06,38,12.10
2009,07,19,06,39,12.20
2009,07,19,06,40,12.20
2009,07,19,06,41,12.30
2009,07,19,06,42,12.40
2009,07,19,06,43,12.50
2009,07,19,06,44,12.50
2009,07,19,06,45,12.60
2009,07,19,06,46,12.70
2009,07,19,06,47,12.80
2009,07,19,06,48,12.90
2009,07,19,06,49,12.90
2009,07,19,06,50,13.00
2009,07,19,06,51,13.10
2009,07,19,06,52,13.20
2009,07,19,06,53,13.20
2009,07,19,06,54,13.30
2009,07,19,06,55,13.40
2009,07,19,06,56,13.50
2009,07,19,06,57,13.60
2009,07,19,06,58,13.70
2009,07,19,06,59,13.70
2009,07,19,07,00,13.80
2009,07,19,07,01,13.90
2009,07,19,07,02,14.00
2009,07,19,07,03,14.10
2009,07,19,07,04,14.10
2009,07,19,07,05,14.10
2009,07,19,07,06,14.20
2009,07,19,07,07,14.20
2009,07,19,07,08,14.20
2009,07,19,07,09,14.20
2009,07,19,07,10,14.20
2009,07,19,07,11,14.30
2009,07,19,07,12,14.30
2009,07,19,07,13,14.20
2009,07,19,07,14,14.20
2009,07,19,07,15,14.20
2009,07,19,07,16,14.10
2009,07,19,07,17,14.10
2009,07,19,07,18,14.10
2009,07,19,07,19,14.10
2009,07,19,07,20,14.10
2009,07,19,07,21,14.10
2009,07,19,07,22,14.10
2009,07,19,07,23,14.10
2009,07,19,07,24,14.10
2009,07,19,07,25,14.20
2009,07,19,07,26,14.30
2009,07,19,07,27,14.30
2009,07,19,07,28,14.40
2009,07,19,07,29,14.50
2009,07,19,07,30,14.50
2009,07,19,07,31,14.60
2009,07,19,07,32,14.60
2009,07,19,07,33,14.70
2009,07,19,07,34,14.80
2009,07,19,07,35,14.80
2009,07,19,07,36,14.80
2009,07,19,07,37,14.80
2009,07,19,07,38,14.80
2009,07,19,07,39,14.80
2009,07,19,07,40,14.80
2009,07,19,07,41,14.80
2009,07,19,07,42,14.80
2009,07,19,07,43,14.80
2009,07,19,07,44,14.90
2009,07,19,07,45,15.00
2009,07,19,07,46,15.00
2009,07,19,07,47,15.00
2009,07,19,07,48,15.00
2009,07,19,07,49,15.00
2009,07,19,07,50,15.20
2009,07,19,07,51,15.20
2009,07,19,07,52,15.30
2009,07,19,07,53,15.30
2009,07,19,07,54,15.30
2009,07,19,07,55,15.30
2009,07,19,07,56,15.30
2009,07,19,07,57,15.30
2009,07,19,07,58,15.40
2009,07,19,07,59,15.40
2009,07,19,08,00,15.40
2009,07,19,08,01,15.50
2009,07,19,08,02,15.50
2009,07,19,08,03,15.50
2009,07,19,08,04,15.60
2009,07,19,08,05,15.60
2009,07,19,08,06,15.70
2009,07,19,08,07,15.90
2009,07,19,08,08,16.10
2009,07,19,08,09,16.20
2009,07,19,08,10,16.40
2009,07,19,08,11,16.60
2009,07,19,08,12,16.70
2009,07,19,08,13,16.80
2009,07,19,08,14,16.90
2009,07,19,08,15,17.10
2009,07,19,08,16,17.20
2009,07,19,08,17,17.30
2009,07,19,08,18,17.30
2009,07,19,08,19,17.40
2009,07,19,08,20,17.40
2009,07,19,08,21,17.40
2009,07,19,08,22,17.40
2009,07,19,08,23,17.50
2009,07,19,08,24,17.60
2009,07,19,08,25,17.60
2009,07,19,08,26,17.70
2009,07,19,08,27,17.70
2009,07,19,08,28,17.80
2009,07,19,08,29,17.80
2009,07,19,08,30,17.90
2009,07,19,08,31,18.00
2009,07,19,08,32,18.00
2009,07,19,08,33,18.10
2009,07,19,08,34,18.10
2009,07,19,08,35,18.00
2009,07,19,08,36,17.90
2009,07,19,08,37,17.90
2009,07,19,08,38,17.90
2009,07,19,08,39,17.90
2009,07,19,08,40,18.00
2009,07,19,08,41,18.10
2009,07,19,08,42,18.10
2009,07,19,08,43,18.10
2009,07,19,08,44,18.00
2009,07,19,08,45,18.00
2009,07,19,08,46,17.90
2009,07,19,08,47,17.80
2009,07,19,08,48,17.80
2009,07,19,08,49,17.80
2009,07,19,08,50,17.80
2009,07,19,08,51,17.80
2009,07,19,08,52,17.90
2009,07,19,08,53,18.00
2009,07,19,08,54,18.10
2009,07,19,08,55,18.20
2009,07,19,08,56,18.30
2009,07,19,08,57,18.40
2009,07,19,08,58,18.50
2009,07,19,08,59,18.60
2009,07,19,09,00,18.70
2009,07,19,09,01,18.80
2009,07,19,09,02,18.80
2009,07,19,09,03,18.80
2009,07,19,09,04,18.70
2009,07,19,09,05,18.60
2009,07,19,09,06,18.50
2009,07,19,09,07,18.40
2009,07,19,09,08,18.30
2009,07,19,09,09,18.40
2009,07,19,09,10,18.40
2009,07,19,09,11,18.30
2009,07,19,09,12,18.30
2009,07,19,09,13,18.30
2009,07,19,09,14,18.30
2009,07,19,09,15,18.30
2009,07,19,09,16,18.30
2009,07,19,09,17,18.40
2009,07,19,09,18,18.50
2009,07,19,09,19,18.60
2009,07,19,09,20,18.70
2009,07,19,09,21,18.80
2009,07,19,09,22,18.80
2009,07,19,09,23,18.80
2009,07,19,09,24,18.80
2009,07,19,09,25,18.80
2009,07,19,09,26,18.90
2009,07,19,09,27,18.90
2009,07,19,09,28,18.90
2009,07,19,09,29,19.00
2009,07,19,09,30,19.00
2009,07,19,09,31,19.00
2009,07,19,09,32,18.90
2009,07,19,09,33,19.00
2009,07,19,09,34,19.00
2009,07,19,09,35,18.90
2009,07,19,09,36,19.00
2009,07,19,09,37,19.00
2009,07,19,09,38,19.00
2009,07,19,09,39,18.90
2009,07,19,09,40,18.80
2009,07,19,09,41,18.80
2009,07,19,09,42,18.80
2009,07,19,09,43,18.80
2009,07,19,09,44,18.90
2009,07,19,09,45,18.90
2009,07,19,09,46,18.80
2009,07,19,09,47,18.80
2009,07,19,09,48,18.80
2009,07,19,09,49,18.70
2009,07,19,09,50,18.60
2009,07,19,09,51,18.60
2009,07,19,09,52,18.60
2009,07,19,09,53,18.70
2009,07,19,09,54,18.80
2009,07,19,09,55,18.90
2009,07,19,09,56,19.00
2009,07,19,09,57,19.00
2009,07,19,09,58,18.90
2009,07,19,09,59,18.90
2009,07,19,10,00,18.90
2009,07,19,10,01,18.90
2009,07,19,10,02,18.80
2009,07,19,10,03,18.80
2009,07,19,10,04,18.80
2009,07,19,10,05,18.80
2009,07,19,10,06,18.80
2009,07,19,10,07,18.90
2009,07,19,10,08,18.90
2009,07,19,10,09,18.90
2009,07,19,10,10,18.80
2009,07,19,10,11,18.80
2009,07,19,10,12,18.90
2009,07,19,10,13,18.90
2009,07,19,10,14,18.90
2009,07,19,10,15,18.90
2009,07,19,10,16,18.80
2009,07,19,10,17,18.90
2009,07,19,10,18,18.90
2009,07,19,10,19,18.90
2009,07,19,10,20,19.00
2009,07,19,10,21,19.00
2009,07,19,10,22,19.10
2009,07,19,10,23,19.20
2009,07,19,10,24,19.30
2009,07,19,10,25,19.40
2009,07,19,10,26,19.50
2009,07,19,10,27,19.50
2009,07,19,10,28,19.50
2009,07,19,10,29,19.50
2009,07,19,10,30,19.50
2009,07,19,10,31,19.60
2009,07,19,10,32,19.60
2009,07,19,10,33,19.50
2009,07,19,10,34,19.40
2009,07,19,10,35,19.30
2009,07,19,10,36,19.30
2009,07,19,10,37,19.30
2009,07,19,10,38,19.20
2009,07,19,10,39,19.10
2009,07,19,10,40,19.10
2009,07,19,10,41,19.20
2009,07,19,10,42,19.20
2009,07,19,10,43,19.30
2009,07,19,10,44,19.30
2009,07,19,10,45,19.40
2009,07,19,10,46,19.40
2009,07,19,10,47,19.50
2009,07,19,10,48,19.60
2009,07,19,10,49,19.60
2009,07,19,10,50,19.70
2009,07,19,10,51,19.70
2009,07,19,10,52,19.80
2009,07,19,10,53,19.80
2009,07,19,10,54,19.90
2009,07,19,10,55,19.90
2009,07,19,10,56,19.80
2009,07,19,10,57,19.70
2009,07,19,10,58,19.60
2009,07,19,10,59,19.40
2009,07,19,11,00,19.30
2009,07,19,11,01,19.30
2009,07,19,11,02,19.20
2009,07,19,11,03,19.10
2009,07,19,11,04,19.20
2009,07,19,11,05,19.20
2009,07,19,11,06,19.20
2009,07,19,11,07,19.20
2009,07,19,11,08,19.20
2009,07,19,11,09,19.30
2009,07,19,11,10,19.30
2009,07,19,11,11,19.40
2009,07,19,11,12,19.40
2009,07,19,11,13,19.40
2009,07,19,11,14,19.50
2009,07,19,11,15,19.50
2009,07,19,11,16,19.60
2009,07,19,11,17,19.80
2009,07,19,11,18,20.00
2009,07,19,11,19,20.10
2009,07,19,11,20,20.10
2009,07,19,11,21,20.00
2009,07,19,11,22,19.80
2009,07,19,11,23,19.80
2009,07,19,11,24,19.80
2009,07,19,11,25,19.70
2009,07,19,11,26,19.60
2009,07,19,11,27,19.60
2009,07,19,11,28,19.60
2009,07,19,11,29,19.60
2009,07,19,11,30,19.50
2009,07,19,11,31,19.60
2009,07,19,11,32,19.60
2009,07,19,11,33,19.50
2009,07,19,11,34,19.60
2009,07,19,11,35,19.70
2009,07,19,11,36,19.70
2009,07,19,11,37,19.60
2009,07,19,11,38,19.60
2009,07,19,11,39,19.60
2009,07,19,11,40,19.60
2009,07,19,11,41,19.50
2009,07,19,11,42,19.50
2009,07,19,11,43,19.60
2009,07,19,11,44,19.70
2009,07,19,11,45,19.70
2009,07,19,11,46,19.80
2009,07,19,11,47,19.80
2009,07,19,11,48,19.90
2009,07,19,11,49,20.00
2009,07,19,11,50,20.10
2009,07,19,11,51,20.20
2009,07,19,11,52,20.30
2009,07,19,11,53,20.30
2009,07,19,11,54,20.30
2009,07,19,11,55,20.30
2009,07,19,11,56,20.10
2009,07,19,11,57,20.10
2009,07,19,11,58,20.00
2009,07,19,11,59,20.00
2009,07,19,12,00,19.90
2009,07,19,12,01,19.90
2009,07,19,12,02,19.90
2009,07,19,12,03,19.80
2009,07,19,12,04,19.70
2009,07,19,12,05,19.70
2009,07,19,12,06,19.80
2009,07,19,12,07,20.10
2009,07,19,12,08,20.30
2009,07,19,12,09,20.40
2009,07,19,12,10,20.50
2009,07,19,12,11,20.40
2009,07,19,12,12,20.20
2009,07,19,12,13,20.20
2009,07,19,12,14,20.20
2009,07,19,12,15,20.20
2009,07,19,12,16,20.20
2009,07,19,12,17,20.20
2009,07,19,12,18,20.20
2009,07,19,12,19,20.30
2009,07,19,12,20,20.50
2009,07,19,12,21,20.60
2009,07,19,12,22,20.70
2009,07,19,12,23,20.80
2009,07,19,12,24,20.90
2009,07,19,12,25,21.00
2009,07,19,12,26,21.00
2009,07,19,12,27,20.90
2009,07,19,12,28,20.80
2009,07,19,12,29,20.80
2009,07,19,12,30,20.80
2009,07,19,12,31,20.80
2009,07,19,12,32,20.80
2009,07,19,12,33,20.70
2009,07,19,12,34,20.60
2009,07,19,12,35,20.60
2009,07,19,12,36,20.50
2009,07,19,12,37,20.50
2009,07,19,12,38,20.40
2009,07,19,12,39,20.30
2009,07,19,12,40,20.40
2009,07,19,12,41,20.30
2009,07,19,12,42,20.20
2009,07,19,12,43,20.20
2009,07,19,12,44,20.20
2009,07,19,12,45,20.20
2009,07,19,12,46,20.30
2009,07,19,12,47,20.40
2009,07,19,12,48,20.50
2009,07,19,12,49,20.50
2009,07,19,12,50,20.60
2009,07,19,12,51,20.60
2009,07,19,12,52,20.60
2009,07,19,12,53,20.50
2009,07,19,12,54,20.40
2009,07,19,12,55,20.40
2009,07,19,12,56,20.40
2009,07,19,12,57,20.40
2009,07,19,12,58,20.40
2009,07,19,12,59,20.60
2009,07,19,13,00,20.60
2009,07,19,13,01,20.70
2009,07,19,13,02,20.70
2009,07,19,13,03,20.80
2009,07,19,13,04,20.90
2009,07,19,13,05,20.80
2009,07,19,13,06,20.70
2009,07,19,13,07,20.70
2009,07,19,13,08,20.70
2009,07,19,13,09,20.70
2009,07,19,13,10,20.70
2009,07,19,13,11,20.70
2009,07,19,13,12,20.80
2009,07,19,13,13,20.80
2009,07,19,13,14,20.70
2009,07,19,13,15,20.70
2009,07,19,13,16,20.70
2009,07,19,13,17,20.80
2009,07,19,13,18,20.80
2009,07,19,13,19,20.90
2009,07,19,13,20,21.00
2009,07,19,13,21,21.10
2009,07,19,13,22,21.10
2009,07,19,13,23,21.10
2009,07,19,13,24,21.10
2009,07,19,13,25,21.20
2009,07,19,13,26,21.30
2009,07,19,13,27,21.50
2009,07,19,13,28,21.50
2009,07,19,13,29,21.30
2009,07,19,13,30,21.20
2009,07,19,13,31,21.10
2009,07,19,13,32,21.00
2009,07,19,13,33,21.10
2009,07,19,13,34,21.20
2009,07,19,13,35,21.20
2009,07,19,13,36,21.30
2009,07,19,13,37,21.30
2009,07,19,13,38,21.20
2009,07,19,13,39,21.30
2009,07,19,13,40,21.40
2009,07,19,13,41,21.50
2009,07,19,13,42,21.60
2009,07,19,13,43,21.70
2009,07,19,13,44,21.70
2009,07,19,13,45,21.60
2009,07,19,13,46,21.60
2009,07,19,13,47,21.50
2009,07,19,13,48,21.50
2009,07,19,13,49,21.60
2009,07,19,13,50,21.60
2009,07,19,13,51,21.60
2009,07,19,13,52,21.70
2009,07,19,13,53,21.70
2009,07,19,13,54,21.70
2009,07,19,13,55,21.80
2009,07,19,13,56,21.80
2009,07,19,13,57,21.80
2009,07,19,13,58,21.90
2009,07,19,13,59,22.00
2009,07,19,14,00,22.10
2009,07,19,14,01,22.20
2009,07,19,14,02,22.20
2009,07,19,14,03,22.20
2009,07,19,14,04,22.20
2009,07,19,14,05,22.20
2009,07,19,14,06,22.20
2009,07,19,14,07,22.20
2009,07,19,14,08,22.20
2009,07,19,14,09,22.20
2009,07,19,14,10,22.20
2009,07,19,14,11,22.20
2009,07,19,14,12,22.40
2009,07,19,14,13,22.50
2009,07,19,14,14,22.70
2009,07,19,14,15,22.80
2009,07,19,14,16,22.80
2009,07,19,14,17,22.70
2009,07,19,14,18,22.80
2009,07,19,14,19,22.80
2009,07,19,14,20,22.70
2009,07,19,14,21,22.70
2009,07,19,14,22,22.80
2009,07,19,14,23,22.70
2009,07,19,14,24,22.70
2009,07,19,14,25,22.70
2009,07,19,14,26,22.70
2009,07,19,14,27,22.80
2009,07,19,14,28,22.80
2009,07,19,14,29,22.80
2009,07,19,14,30,22.80
2009,07,19,14,31,22.80
2009,07,19,14,32,22.90
2009,07,19,14,33,22.90
2009,07,19,14,34,22.90
2009,07,19,14,35,22.90
2009,07,19,14,36,22.80
2009,07,19,14,37,22.70
2009,07,19,14,38,22.70
2009,07,19,14,39,22.70
2009,07,19,14,40,22.70
2009,07,19,14,41,22.70
2009,07,19,14,42,22.80
2009,07,19,14,43,22.80
2009,07,19,14,44,22.80
2009,07,19,14,45,22.80
2009,07,19,14,46,22.70
2009,07,19,14,47,22.70
2009,07,19,14,48,22.70
2009,07,19,14,49,22.80
2009,07,19,14,50,22.80
2009,07,19,14,51,22.80
2009,07,19,14,52,22.80
2009,07,19,14,53,22.70
2009,07,19,14,54,22.60
2009,07,19,14,55,22.60
2009,07,19,14,56,22.50
2009,07,19,14,57,22.40
2009,07,19,14,58,22.40
2009,07,19,14,59,22.40
2009,07,19,15,00,22.40
2009,07,19,15,01,22.50
2009,07,19,15,02,22.50
2009,07,19,15,03,22.40
2009,07,19,15,04,22.40
2009,07,19,15,05,22.40
2009,07,19,15,06,22.60
2009,07,19,15,07,22.70
2009,07,19,15,08,22.80
2009,07,19,15,09,22.80
2009,07,19,15,10,22.80
2009,07,19,15,11,22.90
2009,07,19,15,12,23.00
2009,07,19,15,13,23.00
2009,07,19,15,14,22.90
2009,07,19,15,15,22.80
2009,07,19,15,16,22.80
2009,07,19,15,17,22.80
2009,07,19,15,18,22.80
2009,07,19,15,19,22.90
2009,07,19,15,20,22.80
2009,07,19,15,21,22.80
2009,07,19,15,22,22.80
2009,07,19,15,23,22.80
2009,07,19,15,24,22.80
2009,07,19,15,25,22.80
2009,07,19,15,26,22.80
2009,07,19,15,27,22.70
2009,07,19,15,28,22.70
2009,07,19,15,29,22.70
2009,07,19,15,30,22.70
2009,07,19,15,31,22.80
2009,07,19,15,32,22.80
2009,07,19,15,33,22.80
2009,07,19,15,34,22.80
2009,07,19,15,35,22.80
2009,07,19,15,36,22.80
2009,07,19,15,37,22.80
2009,07,19,15,38,22.80
2009,07,19,15,39,22.90
2009,07,19,15,40,22.90
2009,07,19,15,41,22.90
2009,07,19,15,42,23.00
2009,07,19,15,43,23.10
2009,07,19,15,44,23.20
2009,07,19,15,45,23.20
2009,07,19,15,46,23.30
2009,07,19,15,47,23.30
2009,07,19,15,48,23.30
2009,07,19,15,49,23.40
2009,07,19,15,50,23.30
2009,07,19,15,51,23.20
2009,07,19,15,52,23.20
2009,07,19,15,53,23.10
2009,07,19,15,54,23.10
2009,07,19,15,55,23.10
2009,07,19,15,56,23.00
2009,07,19,15,57,23.00
2009,07,19,15,58,22.90
2009,07,19,15,59,22.90
2009,07,19,16,00,22.90
2009,07,19,16,01,22.90
2009,07,19,16,02,23.00
2009,07,19,16,03,23.10
2009,07,19,16,04,23.10
2009,07,19,16,05,23.10
2009,07,19,16,06,23.10
2009,07,19,16,07,22.90
2009,07,19,16,08,22.90
2009,07,19,16,09,22.90
2009,07,19,16,10,22.90
2009,07,19,16,11,22.90
2009,07,19,16,12,22.90
2009,07,19,16,13,22.90
2009,07,19,16,14,22.90
2009,07,19,16,15,22.80
2009,07,19,16,16,22.90
2009,07,19,16,17,22.90
2009,07,19,16,18,23.00
2009,07,19,16,19,23.00
2009,07,19,16,20,22.90
2009,07,19,16,21,22.90
2009,07,19,16,22,22.90
2009,07,19,16,23,23.00
2009,07,19,16,24,23.00
2009,07,19,16,25,23.10
2009,07,19,16,26,23.00
2009,07,19,16,27,23.10
2009,07,19,16,28,23.10
2009,07,19,16,29,23.10
2009,07,19,16,30,23.10
2009,07,19,16,31,23.10
2009,07,19,16,32,23.10
2009,07,19,16,33,23.20
2009,07,19,16,34,23.20
2009,07,19,16,35,23.20
2009,07,19,16,36,23.20
2009,07,19,16,37,23.20
2009,07,19,16,38,23.20
2009,07,19,16,39,23.20
2009,07,19,16,40,23.30
2009,07,19,16,41,23.30
2009,07,19,16,42,23.30
2009,07,19,16,43,23.20
2009,07,19,16,44,23.20
2009,07,19,16,45,23.20
2009,07,19,16,46,23.10
2009,07,19,16,47,23.10
2009,07,19,16,48,23.20
2009,07,19,16,49,23.20
2009,07,19,16,50,23.20
2009,07,19,16,51,23.10
2009,07,19,16,52,23.20
2009,07,19,16,53,23.20
2009,07,19,16,54,23.20
2009,07,19,16,55,23.10
2009,07,19,16,56,23.10
2009,07,19,16,57,23.00
2009,07,19,16,58,22.90
2009,07,19,16,59,22.90
2009,07,19,17,00,22.90
2009,07,19,17,01,23.00
2009,07,19,17,02,23.00
2009,07,19,17,03,23.10
2009,07,19,17,04,23.10
2009,07,19,17,05,23.10
2009,07,19,17,06,23.10
2009,07,19,17,07,23.10
2009,07,19,17,08,23.10
2009,07,19,17,09,23.10
2009,07,19,17,10,23.10
2009,07,19,17,11,23.10
2009,07,19,17,12,23.10
2009,07,19,17,13,23.10
2009,07,19,17,14,23.00
2009,07,19,17,15,23.00
2009,07,19,17,16,23.00
2009,07,19,17,17,23.00
2009,07,19,17,18,23.00
2009,07,19,17,19,23.00